[[{"header":{"parameterUnit":"m.s-1","parameterCategory":1,"la1":30.2992,"la2":30.254,"lo1":-89.0895,"lo2":-89.0443,"dy":0.0025,"dx":0.0025,"nx":19,"ny":19,"refTime":"2026-05-01T21:00:00:Z","depth":0,"parameterNumber":2,"parameterNumberName":"U-component_of_WINDS"},"data":[0,0,0,-0.6995,-0.6995,-0.7025,-0.7025,-0.7066,-0.7066,0,0,0,0,0,0,0,0,0,0,0,-0.6988,-0.6989,-0.6995,-0.6996,-0.7025,-0.7025,-0.7066,-0.7066,0,0,0,0,0,0,0,0,0,0,0,-0.6988,-0.6988,-0.6989,-0.6996,-0.7025,-0.7025,-0.7065,-0.7042,0,0,0,0,0,0,0,0,0,0,-0.7013,-0.7009,-0.6988,-0.6989,-0.6996,-0.7025,-0.7025,-0.7041,-0.7044,-0.7054,0,-0.7063,0,-0.7065,-0.7069,-0.7069,0,0,0,-0.6994,-0.7007,-0.7013,-0.6989,-0.6996,-0.7025,-0.7011,-0.7042,-0.7045,-0.7057,-0.7064,-0.7065,-0.7066,-0.7069,-0.7069,-0.7132,-0.7133,0,0,-0.6992,-0.6995,-0.7011,-0.7015,-0.7011,-0.701,-0.7012,-0.7044,-0.7052,-0.7064,-0.7066,-0.7067,-0.7069,-0.707,-0.7132,-0.7133,0,0,0,-0.6989,-0.6994,-0.6999,-0.7013,-0.7018,-0.7011,-0.7013,-0.705,-0.7052,-0.7067,-0.7067,-0.707,-0.707,-0.7132,-0.7132,-0.7153,0,0,0,-0.6988,-0.6992,-0.6998,-0.7,-0.7018,-0.7035,-0.7019,-0.7049,-0.7053,-0.7067,-0.707,-0.7071,-0.7131,-0.7132,-0.7152,-0.7163,0,0,0,-0.6986,-0.6991,-0.6996,-0.7,-0.7013,-0.7034,-0.7037,-0.705,-0.7053,-0.7069,-0.7071,-0.7131,-0.7132,-0.715,-0.7161,-0.7181,0,0,0,-0.6984,-0.7015,-0.6997,-0.7031,-0.7012,-0.7047,-0.7037,-0.7063,-0.7079,-0.707,-0.7131,-0.7132,-0.715,-0.716,-0.7179,-0.7198,-0.7206,0,0,-0.7024,-0.702,-0.7039,-0.7024,-0.7062,-0.7042,-0.7083,-0.7095,-0.7095,-0.712,-0.7121,-0.7152,-0.7161,-0.718,-0.7248,-0.7254,0,0,0,-0.7053,-0.7067,-0.7077,-0.7092,-0.7102,-0.7111,-0.7116,-0.7121,-0.7142,-0.7108,-0.7164,-0.7169,-0.718,-0.7189,-0.7195,-0.7205,-0.7136,-0.7136,-0.7136,-0.7114,-0.7111,-0.7143,-0.7143,-0.7158,-0.7163,-0.7174,-0.7181,-0.7174,-0.7187,-0.7195,-0.7236,-0.7247,-0.7251,-0.7261,-0.7203,-0.7204,-0.7204,-0.7204,-0.7173,-0.7193,-0.7181,-0.7209,-0.7205,-0.7228,-0.7233,-0.7227,-0.7248,-0.723,-0.724,-0.7222,-0.7258,-0.7266,-0.7205,-0.7205,-0.7205,-0.7205,-0.7204,-0.7214,-0.7223,-0.7227,-0.7248,-0.7264,-0.7262,-0.7282,-0.7277,-0.7273,-0.7283,-0.7291,-0.7291,-0.729,-0.7287,-0.7287,-0.7287,-0.7287,-0.7287,-0.7287,-0.7255,-0.7259,-0.7277,-0.7288,-0.7297,-0.7307,-0.7311,-0.7319,-0.7327,-0.7322,-0.7322,-0.7314,-0.7261,-0.7249,-0.729,-0.7289,-0.7289,-0.7289,-0.7289,-0.7318,-0.7303,-0.733,-0.7339,-0.7351,-0.7367,-0.736,-0.7377,-0.7383,-0.7393,-0.7381,-0.7343,-0.7339,-0.7334,-0.7324,-0.7382,-0.7382,-0.7382,-0.7382,-0.7354,-0.735,-0.7376,-0.739,-0.7403,-0.7399,-0.7429,-0.7431,-0.7432,-0.7435,-0.7426,-0.7411,-0.7407,-0.7405,-0.7399,-0.7389,-0.7462,-0.7462,-0.7462,-0.7392,-0.739,-0.7417,-0.7417,-0.7426,-0.7433,-0.7462,-0.7477,-0.7474,-0.7465,-0.7438,-0.7434,-0.7411,-0.7403,-0.7396,-0.7387,-0.7369,0,0]},{"header":{"parameterUnit":"m.s-1","parameterCategory":1,"la1":30.2992,"la2":30.254,"lo1":-89.0895,"lo2":-89.0443,"dy":0.0025,"dx":0.0025,"nx":19,"ny":19,"refTime":"2026-05-01T21:00:00:Z","depth":0,"parameterNumber":3,"parameterNumberName":"V-component_of_WINDS"},"data":[0,0,0,-7.3309,-7.3313,-7.3509,-7.351,-7.3766,-7.3768,0,0,0,0,0,0,0,0,0,0,0,-7.3257,-7.3259,-7.3308,-7.3313,-7.3509,-7.351,-7.3765,-7.3768,0,0,0,0,0,0,0,0,0,0,0,-7.3256,-7.3258,-7.3261,-7.3314,-7.3509,-7.351,-7.3765,-7.3614,0,0,0,0,0,0,0,0,0,0,-7.3423,-7.3382,-7.3258,-7.3261,-7.3315,-7.3508,-7.351,-7.3607,-7.3624,-7.368,0,-7.3735,0,-7.3756,-7.3786,-7.3787,0,0,0,-7.3308,-7.3368,-7.3415,-7.3261,-7.3317,-7.3508,-7.3419,-7.3616,-7.3635,-7.3703,-7.3738,-7.3748,-7.376,-7.3787,-7.3789,-7.4143,-7.4145,0,0,-7.3297,-7.3294,-7.3402,-7.3428,-7.3402,-7.3413,-7.3425,-7.3627,-7.3665,-7.3739,-7.3753,-7.3764,-7.3789,-7.3791,-7.4141,-7.4143,0,0,0,-7.327,-7.3287,-7.333,-7.3418,-7.3453,-7.3419,-7.3433,-7.3656,-7.367,-7.3756,-7.3767,-7.3791,-7.3794,-7.4139,-7.4142,-7.4238,0,0,0,-7.3263,-7.3271,-7.3325,-7.3326,-7.3449,-7.3558,-7.3457,-7.3656,-7.3679,-7.3766,-7.3791,-7.3797,-7.4137,-7.4141,-7.423,-7.4283,0,0,0,-7.3242,-7.3269,-7.33,-7.3325,-7.341,-7.3554,-7.358,-7.3661,-7.3687,-7.3787,-7.3797,-7.4135,-7.414,-7.4224,-7.4272,-7.4378,0,0,0,-7.3218,-7.3378,-7.3301,-7.3484,-7.3408,-7.3612,-7.3579,-7.373,-7.3827,-7.3792,-7.4137,-7.4142,-7.4222,-7.4266,-7.4371,-7.4468,-7.4508,0,0,-7.3419,-7.3402,-7.3511,-7.3447,-7.3666,-7.3583,-7.3814,-7.3903,-7.3912,-7.4065,-7.4073,-7.4233,-7.4272,-7.4377,-7.4728,-7.4759,0,0,0,-7.3574,-7.3652,-7.371,-7.3805,-7.3879,-7.3948,-7.4002,-7.4036,-7.4166,-7.3991,-7.4298,-7.4321,-7.4383,-7.4429,-7.4456,-7.451,-7.4162,-7.4162,-7.4162,-7.3855,-7.3862,-7.4043,-7.4074,-7.4166,-7.4222,-7.4297,-7.4351,-7.4328,-7.44,-7.4446,-7.4659,-7.4713,-7.4734,-7.479,-7.4496,-7.4496,-7.4497,-7.4497,-7.4153,-7.4266,-7.4235,-7.4399,-7.4405,-7.4541,-7.4602,-7.4581,-7.4708,-7.4624,-7.4678,-7.4588,-7.4768,-7.4818,-7.4504,-7.4503,-7.4502,-7.4501,-7.4501,-7.434,-7.4396,-7.4436,-7.4576,-7.4681,-7.4705,-7.4831,-7.483,-7.4829,-7.4883,-7.4933,-7.4931,-7.4931,-7.4906,-7.4907,-7.4908,-7.4909,-7.4909,-7.491,-7.452,-7.4562,-7.4669,-7.4764,-7.4826,-7.4907,-7.4966,-7.5026,-7.5092,-7.5081,-7.5082,-7.5053,-7.4784,-7.4718,-7.4921,-7.4919,-7.4918,-7.4916,-7.4916,-7.4823,-7.4755,-7.4921,-7.4984,-7.5096,-7.5202,-7.52,-7.5322,-7.5371,-7.5433,-7.5393,-7.5194,-7.5176,-7.5155,-7.51,-7.539,-7.539,-7.539,-7.539,-7.4983,-7.4974,-7.5146,-7.5247,-7.5344,-7.536,-7.5547,-7.5594,-7.5631,-7.5662,-7.5619,-7.5546,-7.5524,-7.5519,-7.549,-7.5439,-7.5809,-7.5809,-7.5809,-7.5171,-7.5172,-7.5333,-7.5373,-7.546,-7.5535,-7.5712,-7.5826,-7.5853,-7.5826,-7.5686,-7.5669,-7.555,-7.5511,-7.5483,-7.5437,-7.5344,0,0]}]]